Location: Goheenville
(40.9070°N, 79.3720°W)
Time: 04:19:15
(UTC-04:00)

Meteor 2-10 Rocket - Visible Passes

Search period start: 30 June 2015 00:00
Search period end: 10 July 2015 00:00
Orbit: 734 x 885 km, 81.2° (Epoch: 29 June)

Date Brightness Start Highest point End Pass type
(mag) Time Alt. Az. Time Alt. Az. Time Alt. Az.
30 Jun 3.9 01:06:29 10° N 01:12:12 66° ENE 01:13:06 58° ESE visible
30 Jun 5.5 02:50:09 10° NW 02:53:48 17° W 02:54:14 16° W visible
01 Jul 4.3 00:42:24 10° N 00:47:57 48° ENE 00:49:01 43° ESE visible
01 Jul 5.2 02:25:14 10° NW 02:29:44 23° W 02:30:09 23° W visible
02 Jul 4.7 00:18:25 10° N 00:23:38 35° ENE 00:24:56 31° E visible
02 Jul 4.8 02:00:35 10° NNW 02:05:40 32° W 02:06:05 32° W visible
02 Jul 5.1 23:54:33 10° NNE 23:59:15 26° ENE 00:00:53 23° E visible
03 Jul 4.3 01:36:06 10° NNW 01:41:34 44° W 01:42:01 43° WSW visible
03 Jul 5.5 23:30:52 10° NNE 23:34:49 19° ENE 23:36:51 17° E visible
04 Jul 3.9 01:11:43 10° NNW 01:17:26 61° W 01:17:59 58° WSW visible
04 Jul 5.8 23:07:31 10° NNE 23:10:19 14° ENE 23:12:49 11° E visible
05 Jul 3.6 00:47:26 10° N 00:53:16 84° W 00:53:58 70° S visible
05 Jul 6.0 02:33:19 10° WNW 02:34:34 10° W 02:35:06 10° W visible
06 Jul 3.7 00:23:15 10° N 00:29:04 72° E 00:29:57 61° SE visible
06 Jul 5.7 02:07:11 10° NW 02:10:34 15° W 02:11:06 15° W visible
06 Jul 4.1 23:59:09 10° N 00:04:48 52° ENE 00:05:57 45° ESE visible
07 Jul 5.4 01:42:10 10° NW 01:46:32 21° W 01:47:06 21° W visible
07 Jul 4.6 23:35:08 10° N 23:40:30 38° ENE 23:41:58 33° ESE visible
08 Jul 5.0 01:17:28 10° NNW 01:22:28 29° W 01:23:07 29° WSW visible
08 Jul 5.0 23:11:14 10° NNE 23:16:08 28° ENE 23:18:00 24° E visible
09 Jul 4.5 00:52:57 10° NNW 00:58:23 40° W 00:59:09 38° WSW visible
09 Jul 5.4 22:47:29 10° NNE 22:51:42 21° ENE 22:54:03 17° E visible
